Find OneWeb SL0282

NORAD ID: 49000 Int'l Des: 2021-060 Owner: ONEWEBN Country: UK Constellation: oneweb operational
LEOCIRCULARPOLARONEWEB_TYPE

Live Position

Loading 3D Globe...

About OneWeb SL0282

Description loading...

Upcoming Passes

Passes for default location (London). Set your location on the main map for personalized predictions.

Altitude History

Loading altitude history...

Two-Line Element Set

1 49000U 21060AK 26106.31090876 -.00000019 00000-0 -82701-4 0 9995
2 49000 87.9062 241.0725 0001873 95.9218 264.2126 13.16593467231465
Epoch: Apr 16, 2026 • Age: 10 hours

Current Status

Altitude 1207.3 km
Velocity 7.25 km/s
Sub-Earth Point -24.35°S, 47.17°W
Launch Date Jul 1, 2021
Age 4.7 years
Type internet

Technical Details

Classification Payload
Mass 148.00 kg
Dry Mass 140.00 kg
Total Mass 148.00 kg
Length 1.30 m
Diameter 1.00 m
Span 5.00 m
Shape Trapezoid+2 pan
Manufacturer ONEWUS
Bus Type ARROW
Phase Status In Orbit
Owner/State ONEWEBN/UK

Most Searched